Location: Wildlife_Club
(35.6000°N, 81.4330°W)
Time: 19:00:36
(UTC-04:00)

A-11 Canister half - Pass Details

Date: 22 June 2019
Orbit: 1527 x 1682 km, 47.3° (Epoch: 13 October)

Event Time Altitude Azimuth Distance (km) Brightness Sun altitude
Exits shadow 02:44:26 13° 137° (SE) 3,519 10.6 -28.2°
Maximum altitude 02:46:25 14° 123° (ESE) 3,441 10.7 -28.1°
Drops below altitude 10° 02:50:46 10° 95° (E) 3,740 11.2 -27.8°
Sets 02:55:47 0° 72° (ENE) 4,704 12.1 -27.4°
